Regional Weather Roundup
Issued by NWS Upton, NY

Current Version | Previous Version | Text Only | Print | Product List | Glossary On
Versions: 1 2 3 4 5 6 7 8 9 10 11 12 13 14 15 16 17 18 19 20 21 22 23 24 25 26 27 28 29 30 31 32 33 34 35 36 37 38 39 40 41 42 43 44 45 46 47 48 49 50
000 ASUS41 KOKX 260104 RWROKX REGIONAL WEATHER ROUNDUP NATIONAL WEATHER SERVICE NEW YORK NY 900 PM EDT MON JUL 25 2016 NOTE: "FAIR" INDICATES FEW OR NO CLOUDS BELOW 12,000 FEET WITH NO SIGNIFICANT WEATHER AND/OR OBSTRUCTIONS TO VISIBILITY. NYZ071-072-176-178-NJZ106-104-260200- NEW YORK CITY METRO AREA CITY SKY/WX TMP DP RH WIND PRES REMARKS Central Park CLOUDY 74 72 93 CALM 29.90R LaGuardia APRT LGT RAIN 78 73 84 S6 29.87S Kennedy INTL LGT RAIN 75 71 87 SW10 29.89F Newark/Liberty CLOUDY 76 74 93 S7 29.87S Bronx Bot Gard N/A 72 70 94 E1 29.90R Wall St Helipt CLOUDY 75 73 94 SW6 29.89R Teterboro LGT RAIN 76 71 85 S5 29.86S $$ NYZ177-179-078>081-260200- LONG ISLAND NEW YORK CITY SKY/WX TMP DP RH WIND PRES REMARKS Farmingdale LGT RAIN 74 72 93 S9 29.85F MacArthur/ISP LGT RAIN 75 73 93 S7 29.84F Shirley LGT RAIN 76 74 93 S3 29.86F Riverhead NOT AVBL Westhampton LGT RAIN 75 73 93 S5 29.87F Southhampton N/A 75 73 94 NW1 29.81F Bridgehampton N/A 75 73 94 CALM 29.86F East Hampton LGT RAIN 75 73 93 CALM 29.85F Montauk N/A 76 75 97 W6 29.88R $$ NYZ052-065-067-260200- HUDSON VALLEY CITY SKY/WX TMP DP RH WIND PRES REMARKS White Plains CLOUDY 72 70 93 SW3 29.87F Newburgh MOCLDY 72 72 100 W7 29.88R Montgomery HVY RAIN 72 71 97 SW5 29.87R Poughkeepsie MOCLDY 75 71 87 SW6 29.84R Albany CLOUDY 77 70 79 S6 29.82R $$ NJZ001-105-106-008-010-013-015-019>022-104-260200- NEW JERSEY CITY SKY/WX TMP DP RH WIND PRES REMARKS Newark/Liberty CLOUDY 76 74 93 S7 29.87S Teterboro LGT RAIN 76 71 85 S5 29.86S Caldwell CLOUDY 74 72 93 NW3 29.88R Morristown MOCLDY 75 73 94 CALM 29.88S Somerville CLOUDY 74 73 97 SE3 29.87R Linden N/A 75 73 92 CALM 29.89R Sussex CLOUDY 71 71 100 CALM 29.88R Abdover N/A 71 70 96 CALM 29.89S Trenton LGT RAIN 74 73 97 S7 29.89F Millville CLOUDY 78 69 73 NE14G24 29.94R Atlantic City LGT RAIN 74 71 91 N15G24 29.95R Wrightstown CLOUDY 73 73 100 S5 29.87F Toms River TSTM 73 72 94 E5 29.93F Belmar LGT RAIN 72 72 100 SE9 29.91F $$ PAZ047>061-062-071-260200- EASTERN PENNSYLVANIA CITY SKY/WX TMP DP RH WIND PRES REMARKS Philadelphia CLOUDY 75 72 90 S9 29.92F Allentown CLOUDY 72 69 90 SW5 29.89F Scranton PTCLDY 71 70 96 SW6 29.91R $$ CTZ002-004>006-009-010-012-RIZ004-006-007-MAZ004-011-015-260200- SOUTHERN NEW ENGLAND IN CT CITY SKY/WX TMP DP RH WIND PRES REMARKS Bradley INTL CLOUDY 77 72 84 SW8 29.79F Hartford CLOUDY 78 72 81 S9 29.78F Danbury CLOUDY 72 69 90 SW5 29.87R Wtrbury/Oxford MOCLDY 72 66 83 W3 29.85F Bridgeport LGT RAIN 73 69 87 S9 29.81F Meriden LGT RAIN 76 72 87 SE3 29.80F New Haven LGT RAIN 74 72 93 SE7 29.80F Chester LGT RAIN 73 73 100 SW5 29.83F Groton LGT RAIN 77 74 90 SW10 29.83F Wilimantic NOT AVBL IN RI CITY SKY/WX TMP DP RH WIND PRES REMARKS Providence LGT RAIN 77 70 79 SW9 29.82F Block Island LGT RAIN 73 72 96 SW9 29.87S Westerly LGT RAIN 76 71 85 SW9 29.85F IN MA CITY SKY/WX TMP DP RH WIND PRES REMARKS Boston CLOUDY 79 68 69 S15 29.78S Worchester CLOUDY 77 68 73 SW12 29.83R Westfield CLOUDY 79 69 71 SW10 29.81R Provincetown CLOUDY 74 69 85 S13 29.83R Nantucket CLOUDY 72 71 97 S14 29.87R $$ ANZ330-335-338-340-345-350-353-355-260200- COASTAL MARINE OBSERVATIONS STATION/POSITION TIME SKY/WX TEMP WIND PRES VSBY WAVE AIR SEA DIR/SP/G HT/PER (UTC) (F) (DEG/KT/KT) (MB) (MI) (FT/S) NY HARB ENTRANCE 2350 73 73 150/ 6/ 8 1012.3 2/ 3 20S FIRE ISLAND 2350 73 74 240/ 4/ 6 1012.2 3/ 4 GREAT SOUTH BAY 0030 77 81 320/ 6/ 14 N/A 23 SSW MONTAUK P 2350 75 74 240/ 14/ 16 1011.6 2/ 6 15 E BARNEGAT LI 0022 75 N/A 2/ 3 HUDSON CANYON 2350 79 78 1011.5 2/ 4 KINGS POINT 0000 74 73 N/A EXECUTION ROCKS 0000 73 60/ 4/ 6 N/A CENTRAL LI SOUND 0000 76 75 270/ 19/ 23 N/A 1/ 2 EASTERN LI SOUND 0000 72 67 240/ 6/ 10 N/A ROBBINS REEF 0000 75 N/A $$ >>>>>>>>>>>>>>>>>>>>>>>>>>>> KEY <<<<<<<<<<<<<<<<<<<<<<<<<<< > < > SKY/WX - Sky Condition/Present Weather < > TMP - Temperature in Fahrenheit < > DP - Dew Point in Fahrenheit < > RH - Relative Humidity in Percent < > WIND - Direction (from) and Speed in MPH < > PRES - Mean Sea Level Pressure (inches of Hg) < > WCI - Wind Chill Index < > VSB - VISIBILITY IN MILES < > HX - HEAT INDEX < > TC - TEMPERATURE IN CELSIUS < > VRB - VARIABLE WIND DIRECTION < > < >>>>>>>>>>>>>>>>>>>>>>>>>>>> KEY <<<<<<<<<<<<<<<<<<<<<<<<<<<

USA.gov is the U.S. government's official web portal to all federal, state and local government web resources and services.